Ames, IA

2:27 AM CST on November 21, 2017 (GMT -0600)
Ames Municipal

Weather History for KAMW - November, 2011

Change the Weather History Date:

Saturday, November 12, 2011

  Actual Average Record
Temperature  
Mean Temperature 43 °F 38 °F  
Max Temperature 57 °F 48 °F 66 °F (1999)
Min Temperature 28 °F 29 °F 10 °F (2013)
Degree Days  
Heating Degree Days 22 27  
Month to date heating degree days 281 286  
Since 1 July heating degree days 839 882  
Cooling Degree Days 0 0  
Month to date cooling degree days 0 0  
Year to date cooling degree days 973 752  
Moisture  
Dew Point 34 °F    
Average Humidity 71    
Maximum Humidity 92    
Minimum Humidity 50    
Precipitation  
Precipitation 0.00 in 0.08 in 2.68 in (1982)
Month to date precipitation 2.97 1.07  
Year to date precipitation 29.15  
Sea Level Pressure  
Sea Level Pressure 29.54 in    
Wind  
Wind Speed 7 mph (South)    
Max Wind Speed 17 mph    
Max Gust Speed 22 mph    
Visibility 10 miles    
Events      
T = Trace of Precipitation, MM = Missing Value Source: NWS Daily Summary

Daily Weather History Graph

Daily Weather History Graph

Search for Another Location

Airport or City:

Trip Planner

Search our weather history database for the weather conditions in past years. The results will help you decide how hot, cold, wet, or windy it might be!

Date:

Astronomy

Nov. 12, 2011 Rise Set
Actual Time 7:00 AM CST 4:56 PM CST
Civil Twilight 6:30 AM CST 5:26 PM CST
Nautical Twilight 5:56 AM CST 5:59 PM CST
Astronomical Twilight 5:24 AM CST 6:32 PM CST
Moon 6:10 PM CST (11/12) 8:45 AM CST (11/12)
Length of Visible Light 10h 55m
Length of Day
9h 55m
Full, 97% of the Moon is Illuminated
Nov 12
Full
Nov 18
Last Quarter
Nov 25
New
Dec 2
First Quarter
Dec 10
Full

Hourly Weather History & Observations

Time (CST) Temp. Windchill Dew Point Humidity Pressure Visibility Wind Dir Wind Speed Gust Speed Precip Events Conditions
1:53 AM 30.9 °F - 28.9 °F 92% 29.70 in 10.0 mi Calm Calm - N/A   Clear
2:53 AM 34.0 °F - 30.0 °F 85% 29.69 in 10.0 mi Calm Calm - N/A   Clear
3:53 AM 30.0 °F - 28.0 °F 92% 29.68 in 10.0 mi Calm Calm - N/A   Clear
4:53 AM 30.0 °F 26.5 °F 28.0 °F 92% 29.68 in 10.0 mi SE 3.5 mph - N/A   Clear
6:53 AM 30.9 °F 25.2 °F 28.0 °F 89% 29.66 in 10.0 mi SE 5.8 mph - N/A   Clear
7:53 AM 32.0 °F - 30.0 °F 92% 29.67 in 10.0 mi Calm Calm - N/A   Clear
8:53 AM 37.9 °F 32.1 °F 35.1 °F 89% 29.66 in 10.0 mi SSE 8.1 mph - N/A   Clear
9:53 AM 45.0 °F 39.7 °F 37.9 °F 76% 29.64 in 10.0 mi South 10.4 mph - N/A   Clear
10:53 AM 50.0 °F - 39.0 °F 66% 29.62 in 10.0 mi South 10.4 mph - N/A   Clear
11:53 AM 52.0 °F - 39.0 °F 61% 29.58 in 10.0 mi South 12.7 mph - N/A   Clear
12:53 PM 54.0 °F - 37.9 °F 55% 29.54 in 10.0 mi South 12.7 mph - N/A   Clear
2:53 PM 55.0 °F - 37.0 °F 51% 29.49 in 10.0 mi South 8.1 mph - N/A   Clear
3:53 PM 54.0 °F - 37.0 °F 53% 29.47 in 10.0 mi South 12.7 mph - N/A   Clear
4:53 PM 53.1 °F - 36.0 °F 52% 29.46 in 8.0 mi South 11.5 mph - N/A   Clear
5:53 PM 50.0 °F - 35.1 °F 57% 29.45 in 10.0 mi South 10.4 mph - N/A   Clear
6:53 PM 48.0 °F - 36.0 °F 63% 29.44 in 10.0 mi South 9.2 mph - N/A   Clear
7:53 PM 43.0 °F 40.3 °F 34.0 °F 71% 29.42 in 10.0 mi South 4.6 mph - N/A   Clear
8:53 PM 39.9 °F 36.7 °F 33.1 °F 77% 29.41 in 10.0 mi South 4.6 mph - N/A   Clear
9:53 PM 43.0 °F 38.8 °F 35.1 °F 74% 29.39 in 10.0 mi South 6.9 mph - N/A   Clear
10:53 PM 42.1 °F 37.7 °F 35.1 °F 76% 29.38 in 10.0 mi SSW 6.9 mph - N/A   Clear
11:53 PM 44.1 °F 39.5 °F 36.0 °F 73% 29.35 in 10.0 mi SSW 8.1 mph - N/A   Clear